EYVIUMMS

Guest
Details From EYVI - VILNIUS INTL
To UMMS - Minsk Velikiydvor
Flight Number -
Tags generated
Created
Modified
Stats Distance 106 nm / 197 km
Max Altitude 200 ft / 61 m
Waypoints 3
Social Downloads 0
Likes 0
Share VATSIM

Download

Looking for another format? Having issues loading an existing format? Contact us
Advertisement - Login to hide

Notes

Basic altitude profile: - Ascent Rate: 18000ft/min - Ascent Speed: 300kts - Cruise Altitude: 18000ft - Cruise Speed: 310kts - Descent Rate: 3000ft/min - Descent Speed: 250kts

Route

EYVI MNS UMMS

ID Type Via Altitude Latitude Longitude Leg Dist Tot Dist Heading (true) Name
O EYVI APT - 0 ft / 0 m 54.63417˚ 25.28580˚ - 0 nm - VILNIUS INTL
MNS VOR - 200 ft / 61 m 53.88500˚ 28.02167˚ 105 nm 105 nm 114° / 116° MINSK-2 VOR-DME
O UMMS APT - 0 ft / 0 m 53.88255˚ 28.03079˚ 0 nm 106 nm 115° / 115° Minsk Velikiydvor

Altitude Profile

Advertisement - Login to hide

EYVI

Details ICAO EYVI (VNO)
Name VILNIUS INTL
Region Lithuania
Timezone Europe/Vilnius (UTC+3.0)
Stats Elevation 646 ft / 197 m (AMSL)
Location 54.634166° 25.285796°
Runways 1
Magnetic Variation 7.530° E

METAR

EYVI 260154Z 11008KT CAVOK 15/11 Q1027 NOSIG

Decode

TAF

Not found

Departure Runways

ID Width Length Bearing (true) Bearing (mag) Surface Threshold Offset Overrun Length
02 164 ft / 50 m 8,210 ft / 2,502 m 21.89° 14.36° Asphalt 0 ft / 0 m 151 ft / 46 m
20 164 ft / 50 m 8,210 ft / 2,502 m 201.91° 194.38° Asphalt 0 ft / 0 m 0 ft / 0 m

UMMS

Details ICAO UMMS (MSQ)
Name Minsk Velikiydvor
Region Belarus and Russia (Kaliningrad Oblast)
Timezone Europe/Minsk (UTC+3.0)
Stats Elevation 669 ft / 204 m (AMSL)
Location 53.882550° 28.030786°
Runways 1
Magnetic Variation 8.067° E

METAR

UMMS 260200Z 00000MPS CAVOK 09/07 Q1028 R13/D NOSIG

Decode

TAF

TAF UMMS 252307Z 2600/2624 09005MPS 9999 SCT030 TEMPO 2600/2606 1500 BR SCT004 BECMG 2606/2607 13006MPS

Decode

Destination Runways

ID Width Length Bearing (true) Bearing (mag) Surface Threshold Offset Overrun Length
13 197 ft / 60 m 11,938 ft / 3,639 m 138.85° 130.78° Concrete 0 ft / 0 m 0 ft / 0 m
31 197 ft / 60 m 11,938 ft / 3,639 m 318.88° 310.81° Concrete 0 ft / 0 m 0 ft / 0 m

Approach Navaids

Runway Type Ident Frequency Range Bearing (true) Bearing (mag) Slope Elevation
13 Localiser IVX 108.90 MHz 18 nm / 33 km 138.79° 130.73° - 669 ft / 204 m (AMSL)
13 Glidescope IVX 108.90 MHz 10 nm / 19 km 138.79° 130.73° 2.70° 669 ft / 204 m (AMSL)
31 Localiser IGH 109.70 MHz 18 nm / 33 km 318.83° 310.77° - 669 ft / 204 m (AMSL)
31 Glidescope IGH 109.70 MHz 10 nm / 19 km 318.83° 310.77° 2.70° 669 ft / 204 m (AMSL)

Popular Alternatives